User: anonymous
Location: State Camp
(41.2367°N, 77.7828°W)
Time: 01:06:12
(UTC-04:00)
Language:

Lacrosse 5 - Orbit

View from above orbital plane
View from above orbital plane
View from above satellite
View from above satellite

Ground track
Ground track

The orbit data is extracted from the following two-line orbital elements,

1 28646U 05016A   14204.86532524 0.00000000  00000-0  00000-0 0    07
2 28646  57.0060 121.0432 0005602  22.2618 337.7381 14.53498471    01
Epoch (UTC): 23 July 2014 20:46:04
Eccentricity: 0.0005602
inclination: 57.0060°
perigee height: 710 km
apogee height: 718 km
right ascension of ascending node: 121.0432°
argument of perigee: 22.2618°
revolutions per day: 14.53498471
mean anomaly at epoch: 337.7381°
orbit number at epoch: 0

The dashed part of the orbit path shows where the satellite is in the earth's shadow,  

DLR